Regional Weather Roundup
Issued by NWS

Home | Current Version | Previous Version | Text Only | Print | Product List | Glossary Off
Versions: 1 2 3 4 5 6 7 8 9 10 11 12 13 14 15 16 17 18 19 20 21 22 23 24 25 26 27 28 29 30 31 32 33 34 35 36 37 38 39 40 41 42 43 44 45 46 47 48 49 50

271
ASUS43 KMKX 171020
RWRWI

WISCONSIN REGIONAL WEATHER ROUNDUP
NATIONAL WEATHER SERVICE MILWAUKEE/SULLIVAN WI
400 AM CST WED JAN 17 2018

NOTE: "FAIR" INDICATES FEW OR NO CLOUDS BELOW 12,000 FEET WITH NO
SIGNIFICANT WEATHER AND/OR OBSTRUCTIONS TO VISIBILITY.

WIZ001-002-006>008-014>016-023>028-171100-
NORTHWEST WISCONSIN

CITY           SKY/WX    TMP DP  RH WIND       PRES   REMARKS
SUPERIOR ARPT  FAIR       5  -3  69 SW9       30.29F WCI  -9
ASHLAND        FAIR       6  -2  69 SW14      30.28F WCI -11
HAYWARD        FAIR       1  -4  79 SW8       30.31F WCI -13
SIREN          FAIR       2  -4  75 SW8       30.36F WCI -11
CUMBERLAND     FAIR       0  -6  78 SW10      30.36F WCI -17
RICE LAKE      FAIR      -1  -5  85 CALM      30.40F
CHETEK         FAIR      -4  -8  84 MISG      30.40F
LADYSMITH      FAIR       0  -4  84 SW7       30.38F WCI -13
EAU CLAIRE     FAIR      -3  -6  87 SW8       30.43F WCI -18
MENOMONIE      FAIR      -3  -8  81 CALM      30.44F
NEW RICHMOND   FAIR      -2  -7  81 SW8       30.41F WCI -17
OSCEOLA        FAIR      -3  -7  82 S6        30.44F WCI -15
$$

WIZ003>005-009-010-017-018-171100-
NORTH CENTRAL WISCONSIN

CITY           SKY/WX    TMP DP  RH WIND       PRES   REMARKS
MANITOWISH WTR MOCLDY     2  -3  78 SW12      30.24F WCI -14
ARBOR VITAE    MOCLDY     5   0  79 W10G18    30.25F WCI -10
WOODRUFF       MOCLDY     5   0  79 W10G18    30.25F WCI -10
RHINELANDER    CLOUDY     3  -2  79 W13       30.26F WCI -14
EAGLE RIVER    FAIR       4  -2  75 W13       30.23F WCI -13
LAND O LAKES   CLOUDY     6   0  77 W8        30.22F WCI  -7
PHILLIPS       MOCLDY     0  -4  82 SW9       30.29F WCI -15
TOMAHAWK       CLOUDY     2  -2  82 W3        30.31F
MEDFORD        MOCLDY    -4  -8  84 W8        30.34S WCI -19
MERRILL        MOCLDY    -1  -4  85 W5        30.35F WCI -11
$$

WIZ029-030-035-036-043>047-171100-
CENTRAL WISCONSIN

CITY           SKY/WX    TMP DP  RH WIND       PRES   REMARKS
WAUSAU         FAIR      -2  -6  83 W6        30.36F WCI -14
MOSINEE        FAIR      -2  -4  92 W8        30.38F WCI -17
MARSHFIELD     MOCLDY    -3  -7  82 W9        30.38F WCI -19
STEVENS POINT  FAIR      -2  -5  87 W7        30.41S WCI -16
WAUPACA        FAIR       3  -3  77 SW7       30.42F WCI  -9
WAUTOMA        FAIR      -1  -4  87 W9        30.45  WCI -16
WISC RAPIDS    FAIR      -2  -7  79 W7        30.43F WCI -15
CAMP DOUGLAS   FAIR      -3  -7  83 SW3       30.45F
$$

WIZ011>013-019>022-031-037>040-048>050-171100-
NORTHEAST WISCONSIN

CITY           SKY/WX    TMP DP  RH WIND       PRES   REMARKS
ANTIGO         FAIR      -1  -4  87 W12       30.30F WCI -19
SHAWANO        FAIR       5   0  78 SW6       30.38F WCI  -5
OCONTO         MOCLDY     5   2  88 W9        30.37F WCI  -9
STURGEON BAY   FAIR       6   2  83 SW15      30.36F WCI -12
GREEN BAY      FAIR       4  -2  76 SW8       30.41F WCI  -9
MANITOWOC      FAIR       6   1  80 W14       30.42F WCI -11
APPLETON       FAIR       3  -4  72 SW13      30.39F WCI -14
CLINTONVILLE   FAIR       3  -4  72 W5        30.40F WCI  -6
OSHKOSH        FAIR       4  -1  80 W8        30.43F WCI  -9
$$

WIZ032>034-041-042-053>061-171100-
SOUTHWEST WISCONSIN

CITY           SKY/WX    TMP DP  RH WIND       PRES   REMARKS
LA CROSSE      FAIR      -3  -7  82 S7        30.52F WCI -16
SPARTA         FAIR      -3  -6  88 CALM      30.49F
VIROQUA        FAIR      -5  -8  89 SW3       30.45F
BOSCOBEL       FAIR      -3  -7  82 SW6       30.56F WCI -15
PRAIRIE DU CHI FAIR      -4  -9  79 CALM      30.57S
PLATTEVILLE    FAIR      -3  -6  89 W6        30.52F WCI -15
$$

WIZ056-057-062-063-064-067-068-171100-
SOUTH CENTRAL WISCONSIN

CITY           SKY/WX    TMP DP  RH WIND       PRES   REMARKS
REEDSBURG      FAIR       0  -4  85 SW7       30.48F WCI -13
BARABOO/DELLS  FAIR      -1  -4  85 SW3       30.47F
LONE ROCK      FAIR      -2  -6  83 W5        30.53F WCI -12
MINERAL POINT  FAIR      -2  -4  92 W5        30.49S WCI -12
MADISON        FAIR       3  -1  83 CALM      30.49F
MIDDLETON      FAIR       3   0  85 W7        30.49S WCI  -9
WATERTOWN      FAIR      -1  -2  93 CALM      30.48S
MONROE         FAIR       0  -4  85 W15       30.47F WCI -20
JANESVILLE     FAIR       1   0  92 CALM      30.51S
$$

WIZ051-052-058>065-066-070>072-171100-
SOUTHEAST WISCONSIN

CITY           SKY/WX    TMP DP  RH WIND       PRES   REMARKS
MILWAUKEE      FAIR      10   6  84 W6        30.47F WCI   0
WAUKESHA       FAIR       3   1  92 SW6       30.47S WCI  -8
MILWAUKEE/TIMM FAIR       7   1  78 W8        30.47F WCI  -6
RACINE         FAIR       7   4  87 W7        30.50F WCI  -5
BURLINGTON     FAIR       1  -3  83 SW5       30.49F WCI  -9
KENOSHA        FAIR       3  -1  83 SW8       30.48F WCI -10
FOND DU LAC    FAIR       4  -2  76 SW5       30.44F WCI  -5
SHEBOYGAN      FAIR       3   0  87 W10       30.43F WCI -12
WEST BEND      FAIR       5   3  92 W7        30.44F WCI  -7
JUNEAU         FAIR      -1  -4  88 SW3       30.47F
$$

LSZ147-162-171100-
LAKE SUPERIOR

STATION/POSITION TIME  TEMP    WIND        PRES    WAVE
                       AIR SEA DIR/SP/G            HT/PER
                 (UTC) (F)     (DEG/KT/KT) (MB)    (FT/S)
DEVILS ISLAND    1000   11     230/ 27/ 33 1024.5F
SAXON HARBOR     0940   10     200/ 13/ 18 1024.4F
$$

LMZ867-665-643>646-171100-
LAKE MICHIGAN

STATION/POSITION TIME  TEMP    WIND        PRES    WAVE
                       AIR SEA DIR/SP/G            HT/PER
                 (UTC) (F)     (DEG/KT/KT) (MB)    (FT/S)
NORTHPORT PIER   1003    9     220/ 13/ 36 1026.8
KEWAUNEE LAKESHO 0954    7     260/ 10/ 13 1028.3F
SHEBOYGAN LAKESH 1000    8     260/ 14/ 16 1031.9F
PORT WASHINGTON  0930    9     280/  8/ 12 1032.5F
MILWAUKEE LAKESH 1000   11     270/ 11/ 12   N/A
KENOSHA   LAKESH 1000    8     260/ 11/ 13 1032.2
$$

TC  - TEMPERATURE IN CELSIUS
VSB - VISIBILITY IN STATUTE MILES
WCI - WIND CHILL INDEX
HX  - HEAT INDEX





USA.gov is the U.S. government's official web portal to all federal, state and local government web resources and services.